Home > Weather > Gonaïves > Past weeks

Flag for Haiti Past Weather in Gonaïves, Haiti — Yesterday and Last 2 Weeks

Now
73 °F

Passing clouds.


Feels Like: 68 °F
Forecast: 78 / 95 °F
Wind: 3 mph from East

Location: Santiago

Current Time: Jul 28, 2016 at 3:57:17 AM

Latest Report: Jul 28, 2016 at 3:00 AM


Visibility: N/A

Pressure: 30.01 "Hg

Humidity: 100%

Dew Point: 73 °F

Location of GonaïvesLocation

Past Weather in Gonaïves — Graph

°F

Gonaïves Temperature Yesterday

Maximum temperature yesterday: 91 °F (at 1:00 PM)
Minimum temperature yesterday: 75 °F (at 3:00 AM)
Average temperature yesterday: 80 °F

High & Low Weather Summary for the Past Weeks

 TemperatureHumidityPressure
High93 °F (Jul 16, 2:00 PM)100% (Jul 13, 3:00 AM)30.09 "Hg (Jul 13, 3:00 AM)
Low72 °F (Jul 13, 4:00 AM)44% (Jul 16, 2:00 PM)29.92 "Hg (Jul 27, 3:00 PM)
Average80 °F80%30.01 "Hg
* Reported Jul 13 2:00 AM — Jul 28 2:00 AM, Gonaïves, Weather by CustomWeather, © 2016

Note: Actual official high and low records may vary slightly from our data, if they occured in-between our weather recording intervals... More about our weather records

Advertising

Gonaïves Weather History for the Previous 24 Hours

Scroll right to see more
 ConditionsComfort  
Time TempWeatherWind HumidityBarometerVisibility
2:00 AM
Thu, Jul 28
73 °FPassing clouds.No wind94%30.01 "HgN/A
1:00 AM75 °FPassing clouds.No wind89%30.01 "HgN/A
12:00 AM73 °FPassing clouds.5 mph94%30.01 "HgN/A
11:00 PM
Wed, Jul 27
75 °FPassing clouds.No wind89%30.04 "HgN/A
10:00 PM75 °FPassing clouds.No wind89%30.04 "HgN/A
9:00 PM75 °FPassing clouds.No wind89%30.07 "HgN/A
8:00 PM75 °FPassing clouds.3 mph89%30.01 "HgN/A
7:00 PM77 °FPassing clouds.5 mph83%30.01 "HgN/A
6:00 PM81 °FScattered clouds.6 mph74%29.98 "HgN/A
5:00 PM81 °FBroken clouds.7 mph74%29.95 "HgN/A
4:00 PM75 °FPartly sunny.12 mph83%29.98 "HgN/A
3:00 PM91 °FScattered clouds.15 mph56%29.92 "HgN/A
2:00 PM91 °FScattered clouds.14 mph52%29.95 "HgN/A
1:00 PM91 °FScattered clouds.16 mph56%29.98 "HgN/A
12:00 PM90 °FScattered clouds.15 mph63%29.98 "HgN/A
11:00 AM88 °FScattered clouds.15 mph66%30.01 "HgN/A
10:00 AM86 °FPartly sunny.12 mph66%30.04 "HgN/A
9:00 AM84 °FScattered clouds.10 mph79%30.04 "HgN/A
8:00 AM81 °FPassing clouds.9 mph84%30.01 "HgN/A
7:00 AM77 °FPassing clouds.5 mph94%30.01 "HgN/A
6:00 AM75 °FScattered clouds.3 mph94%30.01 "HgN/A
5:00 AM75 °FFog.5 mph94%29.98 "Hg3 mi
4:00 AM75 °FPassing clouds.5 mph94%29.98 "HgN/A
3:00 AM75 °FPassing clouds.5 mph94%29.95 "HgN/A
Weather by CustomWeather, © 2016

See weather overviewHow to use our weather pages